Regional Weather Roundup
Issued by NWS

Home | Current Version | Previous Version | Graphics & Text | Print | Product List | Glossary On
Versions: 1 2 3 4 5 6 7 8 9 10 11 12 13 14 15 16 17 18 19 20 21 22 23 24 25 26 27 28 29 30 31 32 33 34 35 36 37 38 39 40 41 42 43 44 45 46 47 48 49 50
000
ASUS43 KDMX 202206
RWRIA

WEATHER ROUNDUP FOR IOWA
NATIONAL WEATHER SERVICE DES MOINES IA
400 PM CST MON FEB 20 2017

NOTE: "FAIR" INDICATES FEW OR NO CLOUDS BELOW 12,000 FEET WITH NO
SIGNIFICANT WEATHER AND/OR OBSTRUCTIONS TO VISIBILITY.

* - THESE STATIONS ARE NOT NWS STATIONS...THUS NOT UNDER NWS
QUALITY CONTROL.  THEY ALSO DO NOT REPORT WEATHER SUCH
AS PRECIPITATION OR FOG.

IAZ001>003-012>014-020>022-031>034-043>046-202300-
   NORTHWEST IOWA

CITY           SKY/WX    TMP DP  RH WIND       PRES   REMARKS
CARROLL *      CLOUDY    59  59 100 SW12      29.74F
CHEROKEE *     CLOUDY    51  47  88 W9G16     29.74R
DENISON *      CLOUDY    59  57  94 SW7       29.73R
LE MARS *      CLOUDY    52  45  76 W9        29.77R
SHELDON *      CLOUDY    50  50 100 SW10      29.70S
SIOUX CITY     CLOUDY    56  43  61 NW17      29.75S
SPENCER        CLOUDY    56  53  90 W20       29.71S
STORM LAKE *   CLOUDY    57  55  94 SW14      29.73S
$$

IAZ055>058-069>071-079>083-090>094-202300-
   SOUTHWEST IOWA

CITY           SKY/WX    TMP DP  RH WIND       PRES   REMARKS
ATLANTIC *     CLOUDY    59  59 100 SW12      29.78S
CLARINDA *     CLOUDY    61  59  94 S8          N/A
COUNCIL BLFS * CLOUDY    59  59 100 S9        29.78R
CRESTON *      PTSUNNY   59  59 100 S10       29.81R
HARLAN  *      CLOUDY    59  59 100 SW10      29.80R
LAMONI         CLOUDY    61  58  90 S9        29.81R
RED OAK *      CLOUDY    61  59  94 SW8       29.79R
SHENANDOAH *   CLOUDY    61  57  88 SW8       29.81R
$$

IAZ047>049-059>061-072>074-084-202300-
   CENTRAL IOWA

CITY           SKY/WX    TMP DP  RH WIND       PRES   REMARKS
AMES           CLOUDY    59  59 100 S13       29.77R
ANKENY *       CLOUDY    61  57  88 SW8       29.79S
BOONE *        CLOUDY    57  57 100 SW10G18   29.77R FOG
CHARITON *     CLOUDY    61  57  88 S12       29.81R
DES MOINES     CLOUDY    61  58  90 SW8       29.78S
GRINNELL*      DRIZZLE   58  56  92 S12       29.82R
KNOXVILLE *    CLOUDY    61  57  88 S10       29.78F
MARSHALLTOWN   LGT RAIN  58  57  97 S12       29.78R FOG
NEWTON *       CLOUDY    59  57  94 S12       29.79S FOG
PELLA *        CLOUDY    61  58  88 S9        29.81F
PERRY *        CLOUDY    59  58  96 SW9       29.77R FOG
$$

IAZ004>006-015-016-023>025-035-036-202300-
   NORTH CENTRAL IOWA

CITY           SKY/WX    TMP DP  RH WIND       PRES   REMARKS
ALGONA *       CLOUDY    55  55 100 S10       29.73R FOG
CLARION *      CLOUDY    57  57 100 SW16      29.76R FOG
ESTHERVILLE    CLOUDY    55  55 100 SW13      29.70S FOG
FORT DODGE *   CLOUDY    57  54  88 S10       29.76R
MASON CITY     LGT RAIN  54  53  97 SW12      29.75R FOG
FOREST CITY *  LGT RAIN  54  54 100 S13       29.74R
IOWA FALLS *   DRIZZLE   57  56  96 S14       29.78R
$$

IAZ007>011-017>019-026>030-037>042-050>054-066-202300-
   NORTHEAST IOWA

CITY           SKY/WX    TMP DP  RH WIND       PRES   REMARKS
CEDAR RAPIDS   LGT RAIN  58  56  93 S8        29.82R FOG
CHARLES CITY * LGT RAIN  55  55 100 S17G24    29.76R
CLINTON *      CLOUDY    66  53  63 S15G22    29.85S
DECORAH *      CLOUDY    54  54 100 S14G22    29.76S FOG
DUBUQUE        RAIN      56  54  93 S10       29.85R FOG
MONTICELLO *   CLOUDY    57  55  94 SE7       29.83S
OELWEIN *      CLOUDY    54  54 100 S17       29.80R FOG
WATERLOO       LGT RAIN  56  54  93 S12       29.78R FOG
$$

IAZ064-065-067-068-078-202300-
   EAST CENTRAL IOWA

CITY           SKY/WX    TMP DP  RH WIND       PRES   REMARKS
DAVENPORT      LGT RAIN  66  54  65 S18       29.83S
IOWA CITY      CLOUDY    61  56  83 CALM      29.84R
MUSCATINE *    CLOUDY    64  57  77 SW3       29.83R
QUAD CITIES    CLOUDY    73  51  46 SE15G24   29.81F
$$

IAZ062-063-075>077-085>089-095>099-202300-
   SOUTHEAST IOWA

CITY           SKY/WX    TMP DP  RH WIND       PRES   REMARKS
BURLINGTON     PTSUNNY   74  51  44 S16       29.82R
FAIRFIELD *    CLOUDY    63  55  77 SW9G20    29.85R HAZE
KEOKUK *       CLOUDY    73  50  43 S17G26    29.83R
OTTUMWA        CLOUDY    64  58  80 SW16G23   29.83R
WASHINGTON *   CLOUDY    64  57  77 SW7       29.84R
$$

ABBREVIATIONS USED IN REMARKS
   TC - TEMPERATURES IN CELSIUS
  WCI - WIND CHILL INDEX
   HX - HEAT INDEX
  VSB - VISIBILITY
$$




USA.gov is the U.S. government's official web portal to all federal, state and local government web resources and services.